20040327,000009,345599,30.444250,-124.051700,15.891,32.983,NaN,NaN
20040327,000039,345629,30.444450,-124.051980,15.890,32.970,NaN,NaN
20040327,000109,345659,30.444650,-124.052240,15.888,32.983,NaN,NaN
20040327,000139,345689,30.444860,-124.052520,15.888,32.981,NaN,NaN
20040327,000209,345719,30.445080,-124.052800,15.883,32.982,NaN,NaN
20040327,000239,345749,30.445290,-124.053090,15.885,32.983,NaN,NaN
20040327,000309,345779,30.445460,-124.053370,15.889,32.982,NaN,NaN
20040327,000339,345809,30.445580,-124.053610,15.883,32.982,NaN,NaN
20040327,000409,345839,30.445800,-124.053900,15.885,32.983,NaN,NaN
20040327,000439,345868,30.446180,-124.054260,15.890,32.982,NaN,NaN
20040327,000508,345898,30.446760,-124.054670,15.890,32.982,NaN,NaN
20040327,000538,345928,30.447440,-124.055160,15.890,32.982,NaN,NaN
20040327,000608,345957,30.448310,-124.055500,15.889,32.983,NaN,NaN
20040327,000638,345988,30.449210,-124.055320,15.889,32.983,NaN,NaN
20040327,000708,346018,30.449800,-124.054590,15.883,32.983,NaN,NaN
20040327,000738,346048,30.450300,-124.053710,15.878,32.983,NaN,NaN
20040327,000808,346078,30.450890,-124.052820,15.881,32.983,NaN,NaN
20040327,000839,346109,30.451500,-124.051760,15.880,32.982,NaN,NaN
20040327,000909,346139,30.452110,-124.050670,15.881,32.982,NaN,NaN
20040327,000940,346170,30.452730,-124.049510,15.880,32.982,NaN,NaN
20040327,001009,346198,30.453380,-124.048280,15.890,32.982,NaN,NaN
20040327,001039,346229,30.454060,-124.047050,15.875,32.982,NaN,NaN
20040327,001109,346259,30.454710,-124.045750,15.877,32.981,NaN,NaN
20040327,001139,346289,30.455400,-124.044450,15.874,32.981,NaN,NaN
20040327,001209,346319,30.456070,-124.043160,15.876,32.981,NaN,NaN
20040327,001239,346349,30.456750,-124.041860,15.871,32.980,NaN,NaN
20040327,001309,346378,30.457440,-124.040560,15.876,32.980,NaN,NaN
20040327,001339,346409,30.458130,-124.039240,15.864,32.979,NaN,NaN
20040327,001409,346439,30.458810,-124.037920,15.854,32.978,NaN,NaN
20040327,001439,346469,30.459490,-124.036610,15.848,32.977,NaN,NaN
20040327,001510,346500,30.460220,-124.035350,15.841,32.976,NaN,NaN
20040327,001540,346530,30.460840,-124.034070,15.838,32.976,NaN,NaN
20040327,001610,346560,30.461540,-124.032780,15.834,32.977,NaN,NaN
20040327,001640,346590,30.462210,-124.031480,15.833,32.974,NaN,NaN
20040327,001710,346619,30.462910,-124.030180,15.822,32.975,NaN,NaN
20040327,001740,346650,30.463580,-124.028870,15.827,32.974,NaN,NaN
20040327,001810,346680,30.464270,-124.027590,15.827,32.974,NaN,NaN
20040327,001840,346710,30.464930,-124.026310,15.832,32.974,NaN,NaN
20040327,001910,346740,30.465630,-124.025040,15.839,32.974,NaN,NaN
20040327,001939,346769,30.466290,-124.023760,15.837,32.974,NaN,NaN
20040327,002010,346799,30.466990,-124.022450,15.844,32.974,NaN,NaN
20040327,002040,346830,30.467690,-124.021140,15.853,32.974,NaN,NaN
20040327,002110,346860,30.468390,-124.019810,15.843,32.975,NaN,NaN
20040327,002140,346890,30.469090,-124.018480,15.847,32.975,NaN,NaN
20040327,002209,346919,30.469770,-124.017180,15.844,32.975,NaN,NaN
20040327,002240,346950,30.470480,-124.015850,15.846,32.975,NaN,NaN
20040327,002310,346980,30.471190,-124.014520,15.841,32.975,NaN,NaN
20040327,002340,347010,30.471890,-124.013170,15.836,32.975,NaN,NaN
20040327,002410,347040,30.472610,-124.011800,15.833,32.975,NaN,NaN
20040327,002440,347070,30.473310,-124.010490,15.829,32.975,NaN,NaN
20040327,002510,347100,30.474000,-124.009150,15.831,32.975,NaN,NaN
20040327,002540,347129,30.474700,-124.007820,15.826,32.975,NaN,NaN
20040327,002610,347160,30.475400,-124.006510,15.826,32.975,NaN,NaN
20040327,002640,347190,30.476090,-124.005170,15.827,32.977,NaN,NaN
20040327,002710,347220,30.476820,-124.003840,15.829,32.975,NaN,NaN
20040327,002740,347250,30.477520,-124.002500,15.828,32.976,NaN,NaN
20040327,002810,347280,30.478210,-124.001130,15.828,32.976,NaN,NaN
20040327,002840,347310,30.478890,-123.999810,15.829,32.976,NaN,NaN
20040327,002910,347340,30.479600,-123.998480,15.830,32.975,NaN,NaN
20040327,002940,347370,30.480290,-123.997160,15.828,32.975,NaN,NaN
20040327,003010,347400,30.480960,-123.995800,15.836,32.975,NaN,NaN
20040327,003040,347430,30.481660,-123.994470,15.828,32.975,NaN,NaN
20040327,003110,347459,30.482350,-123.993130,15.820,32.975,NaN,NaN
20040327,003140,347490,30.483060,-123.991800,15.820,32.975,NaN,NaN
20040327,003210,347520,30.483740,-123.990460,15.821,32.975,NaN,NaN
20040327,003240,347550,30.484440,-123.989140,15.828,32.975,NaN,NaN
20040327,003310,347580,30.485110,-123.987810,15.828,32.975,NaN,NaN
20040327,003340,347610,30.485800,-123.986470,15.836,32.976,NaN,NaN
20040327,003410,347639,30.486480,-123.985160,15.839,32.976,NaN,NaN
20040327,003440,347670,30.487130,-123.983830,15.842,32.976,NaN,NaN
20040327,003510,347700,30.487840,-123.982480,15.842,32.974,NaN,NaN
20040327,003541,347731,30.488500,-123.981160,15.852,32.976,NaN,NaN
20040327,003611,347761,30.489190,-123.979810,15.846,32.977,NaN,NaN
20040327,003640,347790,30.489870,-123.978500,15.840,32.977,NaN,NaN
20040327,003711,347821,30.490530,-123.977180,15.843,32.978,NaN,NaN
20040327,003740,347850,30.491220,-123.975850,15.847,32.978,NaN,NaN
20040327,003811,347880,30.491910,-123.974480,15.846,32.979,NaN,NaN
20040327,003841,347911,30.492570,-123.973180,15.849,32.980,NaN,NaN
20040327,003911,347941,30.493240,-123.971870,15.844,32.979,NaN,NaN
20040327,003940,347969,30.493910,-123.970530,15.843,32.980,NaN,NaN
20040327,004010,348000,30.494570,-123.969220,15.836,32.980,NaN,NaN
20040327,004040,348030,30.495240,-123.967880,15.833,32.980,NaN,NaN
20040327,004111,348060,30.495910,-123.966540,15.832,32.980,NaN,NaN
20040327,004140,348090,30.496580,-123.965200,15.828,32.980,NaN,NaN
20040327,004210,348120,30.497260,-123.963860,15.828,32.980,NaN,NaN
20040327,004241,348151,30.497940,-123.962510,15.827,32.980,NaN,NaN
20040327,004311,348181,30.498590,-123.961160,15.821,32.980,NaN,NaN
20040327,004340,348210,30.499260,-123.959840,15.822,32.980,NaN,NaN
20040327,004411,348241,30.499930,-123.958500,15.816,32.980,NaN,NaN
20040327,004441,348271,30.500580,-123.957150,15.815,32.977,NaN,NaN
20040327,004510,348300,30.501260,-123.955810,15.816,32.980,NaN,NaN
20040327,004541,348331,30.501950,-123.954470,15.812,32.980,NaN,NaN
20040327,004611,348361,30.502620,-123.953110,15.812,32.980,NaN,NaN
20040327,004641,348390,30.503300,-123.951750,15.816,32.980,NaN,NaN
20040327,004710,348420,30.503990,-123.950410,15.813,32.980,NaN,NaN
20040327,004742,348452,30.504670,-123.949030,15.813,32.980,NaN,NaN
20040327,004811,348481,30.505310,-123.947720,15.813,32.980,NaN,NaN
20040327,004842,348512,30.506000,-123.946350,15.811,32.979,NaN,NaN
20040327,004911,348541,30.506640,-123.945060,15.808,32.979,NaN,NaN
20040327,004941,348571,30.507330,-123.943670,15.797,32.979,NaN,NaN
20040327,005011,348601,30.508010,-123.942310,15.799,32.979,NaN,NaN
20040327,005041,348631,30.508700,-123.940940,15.793,32.980,NaN,NaN
20040327,005112,348662,30.509340,-123.939590,15.791,32.980,NaN,NaN
20040327,005142,348692,30.509990,-123.938250,15.797,32.980,NaN,NaN
20040327,005211,348720,30.510660,-123.936910,15.801,32.981,NaN,NaN
20040327,005242,348752,30.511320,-123.935540,15.795,32.983,NaN,NaN
20040327,005312,348782,30.511970,-123.934170,15.795,32.983,NaN,NaN
20040327,005342,348811,30.512620,-123.932800,15.797,32.983,NaN,NaN
20040327,005412,348842,30.513270,-123.931480,15.792,32.984,NaN,NaN
20040327,005442,348872,30.513900,-123.930120,15.785,32.984,NaN,NaN
20040327,005512,348902,30.514560,-123.928780,15.785,32.987,NaN,NaN
20040327,005542,348932,30.515220,-123.927410,15.791,32.991,NaN,NaN
20040327,005612,348962,30.515870,-123.926060,15.784,32.991,NaN,NaN
20040327,005642,348992,30.516540,-123.924700,15.780,32.991,NaN,NaN
20040327,005711,349021,30.517170,-123.923330,15.784,32.996,NaN,NaN
20040327,005741,349051,30.517830,-123.921960,15.797,33.002,NaN,NaN
20040327,005811,349081,30.518460,-123.920590,15.805,33.007,NaN,NaN
20040327,005841,349111,30.519130,-123.919210,15.818,33.012,NaN,NaN
20040327,005911,349141,30.519770,-123.917820,15.826,33.015,NaN,NaN
20040327,005941,349171,30.520440,-123.916450,15.829,33.017,NaN,NaN
20040327,010011,349201,30.521100,-123.915080,15.830,33.013,NaN,NaN
20040327,010042,349232,30.521810,-123.913660,15.832,33.021,NaN,NaN
20040327,010112,349262,30.522440,-123.912310,15.832,33.024,NaN,NaN
20040327,010142,349292,30.523120,-123.910910,15.836,33.025,NaN,NaN
20040327,010212,349322,30.523790,-123.909530,15.842,33.026,NaN,NaN
20040327,010242,349352,30.524460,-123.908150,15.839,33.027,NaN,NaN
20040327,010312,349382,30.525090,-123.906810,15.841,33.029,NaN,NaN
20040327,010342,349412,30.525750,-123.905430,15.849,33.029,NaN,NaN
20040327,010412,349442,30.526410,-123.904050,15.854,33.031,NaN,NaN
20040327,010442,349471,30.527070,-123.902650,15.861,33.031,NaN,NaN
20040327,010512,349502,30.527710,-123.901260,15.863,33.032,NaN,NaN
20040327,010542,349532,30.528400,-123.899860,15.870,33.032,NaN,NaN
20040327,010612,349562,30.529060,-123.898500,15.881,33.033,NaN,NaN
20040327,010642,349592,30.529710,-123.897130,15.891,33.033,NaN,NaN
20040327,010712,349622,30.530370,-123.895740,15.903,33.034,NaN,NaN
20040327,010742,349651,30.531010,-123.894350,15.897,33.034,NaN,NaN
20040327,010812,349682,30.531650,-123.892950,15.894,33.034,NaN,NaN
20040327,010842,349712,30.532320,-123.891580,15.896,33.034,NaN,NaN
20040327,010912,349742,30.532960,-123.890200,15.893,33.035,NaN,NaN
20040327,010942,349772,30.533580,-123.888830,15.892,33.035,NaN,NaN
20040327,011012,349802,30.534230,-123.887460,15.897,33.036,NaN,NaN
20040327,011042,349832,30.534890,-123.886010,15.901,33.036,NaN,NaN
20040327,011113,349863,30.535560,-123.884630,15.900,33.037,NaN,NaN
20040327,011143,349892,30.536220,-123.883190,15.898,33.038,NaN,NaN
20040327,011213,349923,30.536850,-123.881840,15.900,33.038,NaN,NaN
20040327,011243,349953,30.537510,-123.880460,15.899,33.038,NaN,NaN
20040327,011313,349983,30.538180,-123.879010,15.898,33.039,NaN,NaN
20040327,011343,350013,30.538820,-123.877590,15.898,33.038,NaN,NaN
20040327,011413,350043,30.539460,-123.876210,15.894,33.038,NaN,NaN
20040327,011443,350073,30.540110,-123.874850,15.895,33.039,NaN,NaN
20040327,011513,350103,30.540750,-123.873450,15.897,33.039,NaN,NaN
20040327,011543,350133,30.541380,-123.872050,15.892,33.037,NaN,NaN
20040327,011613,350163,30.542010,-123.870660,15.891,33.039,NaN,NaN
20040327,011643,350193,30.542570,-123.869210,15.893,33.040,NaN,NaN
20040327,011713,350223,30.543140,-123.867770,15.890,33.039,NaN,NaN
20040327,011743,350253,30.543710,-123.866340,15.886,33.039,NaN,NaN
20040327,011813,350283,30.544280,-123.864880,15.884,33.039,NaN,NaN
20040327,011843,350313,30.544840,-123.863490,15.883,33.040,NaN,NaN
20040327,011914,350344,30.545420,-123.862010,15.882,33.039,NaN,NaN
20040327,011943,350373,30.545960,-123.860620,15.881,33.039,NaN,NaN
20040327,012013,350402,30.546530,-123.859120,15.878,33.038,NaN,NaN
20040327,012043,350433,30.547110,-123.857690,15.876,33.037,NaN,NaN
20040327,012112,350462,30.547630,-123.856270,15.872,33.036,NaN,NaN
20040327,012143,350493,30.548220,-123.854800,15.871,33.035,NaN,NaN
20040327,012214,350524,30.548740,-123.853350,15.872,33.034,NaN,NaN
20040327,012244,350554,30.549300,-123.851900,15.872,33.032,NaN,NaN
20040327,012314,350584,30.549850,-123.850440,15.868,33.030,NaN,NaN
20040327,012344,350614,30.550390,-123.848990,15.865,33.029,NaN,NaN
20040327,012414,350643,30.550950,-123.847540,15.872,33.028,NaN,NaN
20040327,012444,350674,30.551510,-123.846090,15.861,33.026,NaN,NaN
20040327,012514,350704,30.552070,-123.844620,15.857,33.025,NaN,NaN
20040327,012543,350732,30.552620,-123.843160,15.857,33.024,NaN,NaN
20040327,012614,350764,30.553190,-123.841640,15.853,33.022,NaN,NaN
20040327,012643,350793,30.553730,-123.840220,15.851,33.021,NaN,NaN
20040327,012714,350823,30.554310,-123.838770,15.851,33.019,NaN,NaN
20040327,012743,350853,30.554860,-123.837300,15.846,33.015,NaN,NaN
20040327,012814,350884,30.555400,-123.835800,15.840,33.015,NaN,NaN
20040327,012844,350914,30.555940,-123.834420,15.841,33.013,NaN,NaN
20040327,012914,350944,30.556490,-123.832960,15.840,33.010,NaN,NaN
20040327,012944,350974,30.557060,-123.831480,15.828,33.008,NaN,NaN
20040327,013014,351004,30.557590,-123.829990,15.821,33.006,NaN,NaN
20040327,013044,351034,30.558150,-123.828490,15.817,33.004,NaN,NaN
20040327,013114,351064,30.558730,-123.827020,15.814,33.002,NaN,NaN
20040327,013144,351094,30.559290,-123.825530,15.810,33.000,NaN,NaN
20040327,013214,351124,30.559840,-123.824050,15.804,32.999,NaN,NaN
20040327,013244,351153,30.560390,-123.822560,15.803,32.997,NaN,NaN
20040327,013314,351184,30.560940,-123.821090,15.804,32.996,NaN,NaN
20040327,013344,351214,30.561490,-123.819610,15.798,32.995,NaN,NaN
20040327,013414,351244,30.562050,-123.818150,15.795,32.996,NaN,NaN
20040327,013444,351274,30.562620,-123.816670,15.794,32.994,NaN,NaN
20040327,013514,351304,30.563170,-123.815180,15.792,32.992,NaN,NaN
20040327,013544,351334,30.563730,-123.813690,15.787,32.991,NaN,NaN
20040327,013614,351364,30.564270,-123.812210,15.785,32.991,NaN,NaN
20040327,013644,351394,30.564830,-123.810700,15.783,32.989,NaN,NaN
20040327,013714,351424,30.565390,-123.809170,15.779,32.987,NaN,NaN
20040327,013744,351454,30.565960,-123.807660,15.780,32.985,NaN,NaN
20040327,013814,351483,30.566570,-123.806180,15.779,32.985,NaN,NaN
20040327,013844,351514,30.567140,-123.804640,15.779,32.984,NaN,NaN
20040327,013914,351544,30.567600,-123.803150,15.775,32.982,NaN,NaN
20040327,013944,351574,30.568140,-123.801630,15.773,32.982,NaN,NaN
20040327,014014,351604,30.568710,-123.800160,15.775,32.980,NaN,NaN
20040327,014044,351634,30.569330,-123.798620,15.775,32.980,NaN,NaN
20040327,014113,351663,30.569890,-123.797180,15.783,32.978,NaN,NaN
20040327,014144,351694,30.570510,-123.795610,15.783,32.978,NaN,NaN
20040327,014213,351723,30.571090,-123.794170,15.783,32.976,NaN,NaN
20040327,014243,351752,30.571720,-123.792720,15.787,32.977,NaN,NaN
20040327,014314,351784,30.572330,-123.791200,15.784,32.975,NaN,NaN
20040327,014344,351814,30.572920,-123.789680,15.785,32.975,NaN,NaN
20040327,014414,351844,30.573490,-123.788240,15.782,32.974,NaN,NaN
20040327,014444,351874,30.574100,-123.786660,15.779,32.974,NaN,NaN
20040327,014514,351904,30.574700,-123.785170,15.778,32.973,NaN,NaN
20040327,014544,351934,30.575310,-123.783690,15.786,32.973,NaN,NaN
20040327,014614,351964,30.575920,-123.782210,15.784,32.972,NaN,NaN
20040327,014644,351993,30.576520,-123.780720,15.780,32.972,NaN,NaN
20040327,014714,352024,30.577140,-123.779210,15.784,32.972,NaN,NaN
20040327,014744,352054,30.577740,-123.777750,15.787,32.972,NaN,NaN
20040327,014814,352084,30.578340,-123.776250,15.788,32.928,NaN,NaN
20040327,014844,352114,30.578960,-123.774790,15.793,32.970,NaN,NaN
20040327,014914,352144,30.579580,-123.773270,15.800,32.971,NaN,NaN
20040327,014944,352173,30.580160,-123.771840,15.795,32.972,NaN,NaN
20040327,015014,352204,30.580790,-123.770370,15.797,32.972,NaN,NaN
20040327,015044,352234,30.581410,-123.768900,15.791,32.973,NaN,NaN
20040327,015114,352264,30.582050,-123.767400,15.789,32.973,NaN,NaN
20040327,015144,352294,30.582680,-123.765950,15.794,32.974,NaN,NaN
20040327,015214,352324,30.583300,-123.764540,15.788,32.974,NaN,NaN
20040327,015244,352354,30.583930,-123.763080,15.780,32.974,NaN,NaN
20040327,015314,352384,30.584550,-123.761630,15.780,32.975,NaN,NaN
20040327,015344,352414,30.585170,-123.760180,15.780,32.976,NaN,NaN
20040327,015415,352445,30.585860,-123.758640,15.784,32.978,NaN,NaN
20040327,015445,352475,30.586490,-123.757190,15.787,32.972,NaN,NaN
20040327,015515,352505,30.587140,-123.755740,15.787,32.981,NaN,NaN
20040327,015544,352534,30.587750,-123.754340,15.789,32.982,NaN,NaN
20040327,015614,352564,30.588390,-123.752910,15.788,32.983,NaN,NaN
20040327,015645,352595,30.589070,-123.751400,15.782,32.985,NaN,NaN
20040327,015715,352625,30.589710,-123.749960,15.775,32.986,NaN,NaN
20040327,015745,352655,30.590350,-123.748540,15.768,32.988,NaN,NaN
20040327,015815,352685,30.590980,-123.747090,15.762,32.989,NaN,NaN
20040327,015845,352715,30.591650,-123.745670,15.758,32.990,NaN,NaN
20040327,015915,352744,30.592280,-123.744220,15.752,32.990,NaN,NaN
20040327,015945,352775,30.592930,-123.742770,15.747,32.991,NaN,NaN
20040327,020015,352805,30.593590,-123.741320,15.744,32.991,NaN,NaN
20040327,020045,352835,30.594180,-123.739860,15.744,32.991,NaN,NaN
20040327,020115,352865,30.594790,-123.738390,15.745,32.991,NaN,NaN
20040327,020145,352895,30.595380,-123.736940,15.745,32.991,NaN,NaN
20040327,020215,352924,30.596000,-123.735490,15.743,32.991,NaN,NaN
20040327,020245,352955,30.596590,-123.734040,15.746,32.991,NaN,NaN
20040327,020315,352985,30.597210,-123.732610,15.737,32.992,NaN,NaN
20040327,020345,353015,30.597820,-123.731160,15.734,32.992,NaN,NaN
20040327,020415,353045,30.598420,-123.729690,15.732,32.994,NaN,NaN
20040327,020445,353075,30.599020,-123.728210,15.732,32.995,NaN,NaN
20040327,020515,353105,30.599630,-123.726760,15.735,32.997,NaN,NaN
20040327,020545,353135,30.600230,-123.725320,15.733,32.998,NaN,NaN
20040327,020615,353165,30.600810,-123.723900,15.740,32.998,NaN,NaN
20040327,020645,353195,30.601410,-123.722450,15.735,32.998,NaN,NaN
20040327,020715,353225,30.602020,-123.721010,15.736,32.998,NaN,NaN
20040327,020745,353254,30.602620,-123.719550,15.721,32.998,NaN,NaN
20040327,020815,353285,30.603220,-123.718100,15.715,32.998,NaN,NaN
20040327,020845,353315,30.603800,-123.716640,15.710,32.998,NaN,NaN
20040327,020915,353345,30.604410,-123.715200,15.704,32.999,NaN,NaN
20040327,020945,353375,30.605000,-123.713720,15.698,33.001,NaN,NaN
20040327,021015,353405,30.605600,-123.712270,15.694,33.002,NaN,NaN
20040327,021045,353434,30.606180,-123.710830,15.703,33.005,NaN,NaN
20040327,021115,353465,30.606770,-123.709380,15.701,33.013,NaN,NaN
20040327,021145,353495,30.607340,-123.707940,15.715,33.023,NaN,NaN
20040327,021215,353525,30.607940,-123.706510,15.736,33.030,NaN,NaN
20040327,021245,353555,30.608500,-123.705060,15.747,33.034,NaN,NaN
20040327,021315,353585,30.609080,-123.703610,15.755,33.036,NaN,NaN
20040327,021345,353615,30.609680,-123.702180,15.761,33.040,NaN,NaN
20040327,021415,353645,30.610260,-123.700740,15.767,33.042,NaN,NaN
20040327,021445,353675,30.610860,-123.699300,15.769,33.044,NaN,NaN
20040327,021516,353706,30.611480,-123.697810,15.771,33.045,NaN,NaN
20040327,021546,353736,30.612050,-123.696330,15.772,33.045,NaN,NaN
20040327,021616,353766,30.612640,-123.694870,15.766,33.046,NaN,NaN
20040327,021646,353796,30.613230,-123.693420,15.767,33.046,NaN,NaN
20040327,021716,353826,30.613810,-123.691970,15.768,33.047,NaN,NaN
20040327,021746,353856,30.614400,-123.690530,15.769,33.047,NaN,NaN
20040327,021816,353886,30.614970,-123.689060,15.771,33.047,NaN,NaN
20040327,021846,353916,30.615560,-123.687630,15.768,33.047,NaN,NaN
20040327,021916,353946,30.616140,-123.686190,15.767,33.047,NaN,NaN
20040327,021946,353976,30.616700,-123.684740,15.766,33.047,NaN,NaN
20040327,022016,354005,30.617280,-123.683290,15.762,33.047,NaN,NaN
20040327,022046,354036,30.617850,-123.681840,15.759,33.047,NaN,NaN
20040327,022116,354066,30.618410,-123.680420,15.757,33.046,NaN,NaN
20040327,022146,354096,30.618980,-123.678980,15.757,33.046,NaN,NaN
20040327,022216,354126,30.619560,-123.677530,15.761,33.046,NaN,NaN
20040327,022246,354156,30.620120,-123.676080,15.753,33.046,NaN,NaN
20040327,022316,354185,30.620690,-123.674650,15.752,33.046,NaN,NaN
20040327,022346,354216,30.621270,-123.673210,15.749,33.046,NaN,NaN
20040327,022416,354246,30.621830,-123.671750,15.758,33.046,NaN,NaN
20040327,022446,354276,30.622400,-123.670290,15.749,33.046,NaN,NaN
20040327,022516,354306,30.622970,-123.668840,15.749,33.046,NaN,NaN
20040327,022546,354336,30.623570,-123.667410,15.746,33.046,NaN,NaN
20040327,022616,354366,30.624130,-123.665950,15.750,33.046,NaN,NaN
20040327,022646,354396,30.624690,-123.664480,15.747,33.047,NaN,NaN
20040327,022716,354426,30.625240,-123.663010,15.749,33.047,NaN,NaN
20040327,022746,354456,30.625820,-123.661560,15.750,33.047,NaN,NaN
20040327,022816,354486,30.626370,-123.660100,15.755,33.047,NaN,NaN
20040327,022846,354515,30.626950,-123.658630,15.761,33.047,NaN,NaN
20040327,022916,354546,30.627510,-123.657170,15.756,33.047,NaN,NaN
20040327,022946,354576,30.628080,-123.655700,15.754,33.047,NaN,NaN
20040327,023016,354606,30.628650,-123.654230,15.754,33.047,NaN,NaN
20040327,023046,354636,30.629220,-123.652760,15.752,33.048,NaN,NaN
20040327,023116,354666,30.629710,-123.651260,15.749,33.048,NaN,NaN
20040327,023146,354695,30.630240,-123.649780,15.749,33.048,NaN,NaN
20040327,023216,354726,30.630770,-123.648290,15.749,33.048,NaN,NaN
20040327,023246,354756,30.631250,-123.646780,15.746,33.048,NaN,NaN
20040327,023316,354786,30.631750,-123.645290,15.747,33.048,NaN,NaN
20040327,023346,354816,30.632290,-123.643830,15.751,33.048,NaN,NaN
20040327,023416,354846,30.632800,-123.642330,15.743,33.048,NaN,NaN
20040327,023446,354876,30.633320,-123.640840,15.742,33.048,NaN,NaN
20040327,023516,354906,30.633830,-123.639340,15.736,33.048,NaN,NaN
20040327,023546,354936,30.634360,-123.637860,15.734,33.049,NaN,NaN
20040327,023616,354966,30.634870,-123.636370,15.735,33.048,NaN,NaN
20040327,023646,354996,30.635380,-123.634860,15.733,33.048,NaN,NaN
20040327,023716,355025,30.635890,-123.633370,15.731,33.048,NaN,NaN
20040327,023746,355056,30.636410,-123.631880,15.729,33.049,NaN,NaN
20040327,023816,355086,30.636920,-123.630370,15.726,33.048,NaN,NaN
20040327,023846,355116,30.637440,-123.628870,15.722,33.048,NaN,NaN
20040327,023916,355146,30.637970,-123.627380,15.721,33.048,NaN,NaN
20040327,023946,355176,30.638490,-123.625900,15.721,33.048,NaN,NaN
20040327,024016,355206,30.639000,-123.624390,15.723,33.048,NaN,NaN
20040327,024046,355236,30.639520,-123.622910,15.719,33.048,NaN,NaN
20040327,024117,355266,30.640030,-123.621370,15.721,33.048,NaN,NaN
20040327,024147,355297,30.640550,-123.619880,15.723,33.048,NaN,NaN
20040327,024217,355327,30.641090,-123.618400,15.720,33.048,NaN,NaN
20040327,024247,355357,30.641590,-123.616900,15.719,33.048,NaN,NaN
20040327,024317,355387,30.642130,-123.615400,15.718,33.048,NaN,NaN
20040327,024347,355417,30.642630,-123.613880,15.722,33.048,NaN,NaN
20040327,024417,355446,30.643130,-123.612360,15.722,33.048,NaN,NaN
20040327,024447,355477,30.643650,-123.610860,15.724,33.048,NaN,NaN
20040327,024517,355507,30.644140,-123.609390,15.726,33.048,NaN,NaN
20040327,024547,355537,30.644650,-123.607910,15.734,33.048,NaN,NaN
20040327,024617,355567,30.645170,-123.606420,15.730,33.047,NaN,NaN
20040327,024647,355597,30.645660,-123.604930,15.728,33.048,NaN,NaN
20040327,024718,355628,30.646180,-123.603430,15.725,33.048,NaN,NaN
20040327,024748,355658,30.646680,-123.601900,15.724,33.048,NaN,NaN
20040327,024818,355687,30.647180,-123.600400,15.722,33.047,NaN,NaN
20040327,024848,355718,30.647680,-123.598880,15.722,33.048,NaN,NaN
20040327,024918,355748,30.648210,-123.597380,15.720,33.047,NaN,NaN
20040327,024948,355778,30.648690,-123.595880,15.719,33.047,NaN,NaN
20040327,025017,355807,30.649220,-123.594410,15.721,33.048,NaN,NaN
20040327,025047,355837,30.649730,-123.592900,15.727,33.047,NaN,NaN
20040327,025117,355867,30.650230,-123.591400,15.722,33.047,NaN,NaN
20040327,025147,355897,30.650730,-123.589880,15.719,33.047,NaN,NaN
20040327,025217,355927,30.651220,-123.588400,15.720,33.047,NaN,NaN
20040327,025247,355956,30.651710,-123.586920,15.724,33.047,NaN,NaN
20040327,025317,355987,30.652220,-123.585430,15.725,33.047,NaN,NaN
20040327,025347,356017,30.652700,-123.583920,15.718,33.047,NaN,NaN
20040327,025417,356047,30.653230,-123.582420,15.719,33.047,NaN,NaN
20040327,025447,356077,30.653740,-123.580920,15.719,33.048,NaN,NaN
20040327,025517,356107,30.654230,-123.579410,15.716,33.047,NaN,NaN
20040327,025548,356138,30.654750,-123.577820,15.714,33.047,NaN,NaN